Vorticity
6 6 6 7 9 13 12 8 5 5 4 3 1 1 5 2 2 1 1 -1 2 2 2 5 6 6 5 7 13 13 9 5 4 5 5 15 12 12 13 12 11 9 9 5 4
6 6 8 10 12 16 9 6 5 3 3 2 3 3 4 3 1 1 1 1 2 2 3 5 6 6 6 4 4 6 7 7 8 13 10 7 3 3 6 8 8 9 11 8 6
6 10 11 12 15 11 7 5 5 3 4 2 3 3 4 4 3 1 1 1 4 6 4 7 6 5 6 6 8 7 4 8 10 7 3 3 6 5 6 8 12 11 5 3 6
8 11 13 14 13 9 5 4 4 3 4 3 3 3 4 3 2 14 9 7 3 10 10 7 5 5 7 7 8 8 9 7 9 9 7 10 7 7 9 7 11 10 6 5 7
9 11 11 12 13 8 4 4 3 3 3 2 3 3 3 4 2 -4 -2 3 5 12 9 6 7 8 8 7 7 6 8 9 9 9 8 8 9 9 15 14 12 9 9 9 7
10 10 11 12 12 9 4 4 3 3 3 3 4 4 4 4 6 6 8 6 3 10 8 8 8 9 9 9 7 5 8 10 9 12 11 11 10 9 4 11 7 10 13 9 9
8 8 8 8 13 11 5 4 5 3 4 3 3 4 4 5 3 6 2 1 6 9 8 10 10 8 5 6 15 2 2 9 11 15 12 6 16 19 3 3 3 12 10 8 7
7 7 7 7 7 12 13 9 8 6 7 5 5 7 8 9 7 5 5 5 7 10 9 10 7 5 7 8 9 11 17 14 -6 7 8 10 1 6 16 12 14 3 7 11 10
6 7 9 8 7 7 6 7 9 9 9 9 7 7 14 10 11 8 8 7 10 9 9 7 4 4 6 9 9 12 0 -1 10 -4 18 8 2 3 1 10 8 5 2 10 10
6 8 9 6 7 7 7 7 8 7 8 7 8 8 8 2 2 3 4 7 9 8 8 6 5 5 10 13 -4 -7 -0 5 2 -10 7 6 8 10 8 7 10 9 11 14 13
7 6 7 6 7 6 6 6 7 8 8 7 -11 -1 8 2 2 1 0 7 12 8 5 7 5 5 7 6 5 5 7 5 9 4 13 5 4 10 11 18 22 16 12 14 17
9 9 8 8 7 8 7 8 8 5 10 10 10 12 12 10 7 6 13 11 9 5 5 5 7 21 6 4 6 2 1 6 9 1 10 7 7 16 32 -0 14 21 24 18 15
9 9 10 9 9 9 9 8 9 9 6 12 13 10 11 9 10 11 11 7 5 5 6 7 -3 18 22 21 20 12 5 13 11 7 8 20 30 -6 41 27 24 22 18 14 9
8 10 10 9 10 10 9 9 10 5 19 14 14 22 18 16 16 16 15 12 11 10 8 28 13 -5 -6 -2 3 1 13 7 9 16 5 -3 -21 33 3 40 33 11 16 9 9
9 10 11 11 9 7 9 10 5 10 12 11 13 9 8 8 2 13 8 9 9 9 6 -5 -1 6 10 15 14 4 12 0 6 9 16 34 32 -52 8 -12 6 7 35 19 10
7 7 7 7 8 9 8 7 6 13 14 8 7 9 7 4 3 6 12 12 12 15 13 16 14 13 -1 8 16 9 15 13 27 31 24 9 16 -25 19 13 -10 -4 -8 -3 18
7 7 6 6 6 7 8 8 9 7 9 12 8 10 3 1 5 10 10 5 9 16 2 -1 36 30 24 15 14 9 14 16 15 11 2 -11 33 -30 -8 30 17 -10 4 32 34
8 8 7 7 7 7 8 10 5 9 4 -2 1 1 1 1 16 16 1 7 0 21 17 17 11 1 -3 -12 -1 13 18 -3 11 7 -21 19 20 -4 13 -7 -10 7 1 -9 12
8 8 8 8 8 8 8 9 3 13 15 12 7 16 24 21 8 2 18 20 12 3 13 9 11 -23 7 21 12 -5 6 5 6 28 16 10 7 -47 25 -39 34 19 -3 -2 -12
8 8 7 8 8 8 8 -5 -3 14 6 7 4 8 2 8 12 -1 17 5 19 -11 6 7 18 21 7 4 2 15 6 2 14 11 14 17 -5 -2 -39 8 2 -16 17 13 18
9 9 9 10 9 8 4 2 7 11 11 16 9 1 2 7 7 6 3 -11 25 27 -1 -5 24 -10 -5 8 6 9 9 7 12 6 1 6 4 -60 54 1 -16 8 17 18 9
9 9 11 11 12 10 9 9 8 7 8 8 7 6 6 9 17 20 6 12 -6 12 15 22 12 7 6 20 24 20 19 19 6 5 -20 -15 -19 39 -24 -13 10 16 14 6 7
7 7 8 7 6 10 11 7 5 6 6 8 6 3 5 -1 8 19 8 -0 7 4 -2 -13 -1 13 9 18 14 -15 -31 -1 7 12 -5 -13 -33 -37 -15 34 5 23 7 18 14
9 5 11 10 7 6 6 4 6 3 4 5 4 6 8 7 8 -4 -3 -3 -7 -8 10 26 18 0 -26 -27 -3 -1 9 6 7 11 -1 -27 -26 9 19 10 25 11 29 32 17
7 10 6 -8 6 18 16 1 7 12 12 13 10 15 11 4 3 1 11 15 6 -3 9 16 8 9 1 10 6 -0 7 10 10 9 6 -22 10 39 -5 28 5 10 -1 -0 -4
8 5 5 6 9 10 10 7 10 7 6 8 8 1 1 7 15 1 -6 3 11 3 -2 3 2 -3 -3 8 18 17 -7 10 10 14 18 32 17 -14 10 -1 16 6 -8 7 3
8 10 12 8 9 9 6 8 7 7 10 10 13 13 10 12 10 7 5 3 -6 -5 -2 3 4 7 7 30 19 46 13 34 28 24 7 -6 13 16 22 11 13 1 -2 -0 4
Height
3167 3168 3168 3169 3171 3172 3174 3178 3181 3184 3185 3187 3189 3192 3193 3194 3195 3196 3196 3197 3197 3196 3196 3195 3195 3195 3195 3195 3195 3195 3194 3192 3191 3191 3190 3189 3187 3187 3185 3184 3184 3184 3184 3185 3184
3167 3167 3168 3169 3170 3173 3175 3178 3181 3184 3185 3188 3190 3192 3193 3195 3195 3196 3197 3197 3197 3196 3196 3195 3194 3194 3194 3193 3193 3192 3190 3189 3189 3188 3186 3185 3184 3183 3182 3181 3180 3180 3181 3181 3180
3167 3168 3167 3168 3170 3173 3176 3179 3182 3183 3186 3188 3190 3192 3193 3195 3195 3195 3196 3196 3195 3194 3194 3193 3193 3192 3192 3191 3190 3188 3187 3186 3185 3184 3183 3181 3180 3179 3178 3176 3178 3177 3176 3175 3175
3167 3167 3167 3169 3171 3174 3177 3179 3181 3184 3186 3188 3190 3192 3192 3194 3196 3194 3194 3194 3194 3192 3191 3191 3190 3190 3189 3188 3187 3185 3184 3183 3182 3181 3179 3177 3176 3174 3172 3174 3173 3172 3171 3171 3172
3168 3168 3168 3171 3172 3175 3177 3180 3182 3183 3186 3188 3189 3191 3191 3194 3194 3193 3192 3193 3192 3190 3189 3189 3188 3187 3186 3185 3184 3182 3182 3180 3179 3177 3175 3173 3172 3170 3168 3169 3168 3167 3167 3167 3167
3168 3170 3172 3173 3174 3175 3178 3179 3181 3183 3185 3187 3188 3189 3191 3191 3191 3191 3190 3190 3190 3188 3188 3186 3186 3185 3184 3183 3182 3180 3179 3177 3175 3174 3171 3169 3168 3165 3167 3166 3163 3163 3163 3162 3162
3168 3170 3172 3173 3174 3176 3178 3179 3181 3183 3184 3185 3186 3187 3188 3190 3188 3188 3188 3188 3187 3186 3185 3184 3183 3183 3182 3181 3179 3177 3175 3174 3173 3171 3168 3166 3162 3161 3162 3161 3160 3159 3158 3158 3158
3168 3169 3173 3174 3175 3175 3177 3178 3180 3182 3183 3184 3184 3185 3185 3185 3185 3185 3185 3185 3185 3183 3183 3182 3181 3181 3180 3179 3176 3174 3172 3170 3170 3168 3166 3164 3153 3161 3158 3157 3156 3154 3153 3152 3152
3168 3170 3174 3174 3174 3175 3177 3177 3179 3180 3180 3181 3182 3182 3183 3182 3182 3182 3182 3182 3181 3180 3181 3180 3179 3179 3178 3176 3175 3172 3170 3168 3166 3165 3162 3161 3151 3155 3153 3151 3150 3149 3147 3145 3145
3169 3171 3172 3171 3172 3174 3176 3177 3178 3178 3179 3179 3180 3181 3180 3180 3180 3179 3179 3179 3178 3178 3179 3178 3176 3175 3174 3174 3172 3171 3168 3165 3163 3162 3158 3154 3147 3147 3148 3143 3141 3141 3140 3138 3139
3168 3169 3170 3170 3172 3174 3175 3175 3179 3178 3176 3177 3177 3176 3177 3177 3178 3177 3177 3176 3175 3176 3175 3175 3173 3173 3171 3170 3169 3168 3165 3162 3160 3158 3152 3148 3141 3140 3140 3135 3132 3132 3132 3132 3133
3165 3166 3168 3169 3170 3172 3172 3173 3175 3174 3173 3173 3173 3172 3173 3174 3174 3174 3174 3174 3172 3173 3172 3173 3169 3169 3167 3166 3166 3164 3161 3159 3156 3153 3148 3142 3134 3134 3132 3129 3126 3125 3126 3127 3129
3165 3165 3166 3167 3168 3170 3171 3172 3172 3171 3171 3169 3170 3168 3170 3172 3171 3171 3171 3170 3169 3169 3169 3168 3168 3165 3164 3162 3161 3160 3158 3156 3153 3148 3145 3138 3125 3126 3127 3123 3122 3122 3123 3124 3125
3163 3163 3164 3166 3169 3169 3170 3169 3170 3170 3168 3168 3167 3166 3167 3167 3169 3168 3168 3168 3166 3166 3165 3164 3163 3162 3160 3159 3158 3155 3154 3152 3149 3146 3142 3143 3127 3123 3122 3120 3119 3119 3120 3122 3123
3160 3162 3163 3165 3165 3166 3168 3168 3168 3169 3168 3167 3165 3165 3165 3167 3167 3166 3166 3164 3164 3163 3164 3163 3160 3158 3156 3155 3154 3153 3150 3148 3145 3143 3139 3137 3137 3122 3122 3119 3119 3118 3117 3117 3117
3160 3160 3161 3162 3163 3164 3165 3166 3168 3170 3164 3164 3164 3164 3164 3164 3164 3163 3163 3162 3161 3159 3158 3158 3157 3155 3153 3152 3151 3150 3147 3144 3140 3138 3138 3135 3137 3122 3120 3119 3118 3116 3115 3113 3112
3157 3159 3160 3160 3162 3162 3163 3165 3168 3165 3163 3163 3162 3162 3162 3162 3161 3161 3160 3160 3160 3158 3155 3155 3153 3151 3150 3150 3150 3148 3146 3143 3140 3137 3135 3133 3133 3121 3120 3117 3115 3113 3111 3109 3106
3155 3156 3157 3158 3159 3160 3162 3164 3165 3161 3160 3160 3160 3161 3161 3160 3159 3158 3159 3158 3156 3155 3153 3152 3150 3150 3150 3150 3149 3146 3146 3146 3144 3139 3132 3130 3122 3119 3118 3115 3114 3112 3110 3108 3105
3153 3153 3154 3156 3157 3159 3161 3161 3159 3158 3158 3158 3158 3157 3157 3158 3158 3157 3156 3155 3153 3154 3155 3151 3149 3149 3148 3147 3148 3144 3143 3143 3141 3136 3133 3121 3116 3113 3112 3113 3112 3108 3104 3100 3097
3149 3150 3151 3153 3154 3155 3157 3156 3156 3156 3156 3156 3156 3156 3156 3156 3157 3156 3155 3154 3153 3153 3151 3150 3147 3146 3146 3145 3145 3143 3142 3140 3139 3136 3130 3116 3113 3110 3109 3108 3105 3101 3097 3093 3089
3146 3147 3149 3149 3150 3151 3151 3152 3153 3153 3153 3154 3153 3154 3154 3154 3153 3153 3153 3153 3150 3150 3149 3148 3147 3145 3143 3142 3140 3139 3138 3138 3138 3135 3130 3120 3106 3108 3103 3102 3098 3095 3090 3086 3082
3143 3145 3145 3145 3148 3146 3146 3148 3149 3149 3149 3150 3149 3149 3151 3150 3149 3150 3149 3149 3148 3147 3146 3145 3142 3139 3139 3137 3135 3135 3134 3135 3134 3131 3127 3118 3091 3097 3098 3097 3094 3088 3082 3079 3075
3138 3139 3140 3141 3141 3142 3143 3144 3144 3145 3146 3145 3145 3146 3146 3147 3148 3145 3145 3145 3144 3144 3142 3141 3138 3135 3134 3135 3132 3131 3131 3131 3130 3125 3114 3114 3089 3091 3093 3092 3088 3081 3077 3073 3068
3133 3134 3135 3135 3136 3138 3138 3139 3139 3140 3140 3141 3141 3142 3142 3141 3142 3141 3141 3141 3140 3139 3138 3135 3132 3131 3130 3129 3129 3126 3124 3125 3123 3116 3104 3096 3082 3084 3086 3084 3079 3076 3071 3066 3060
3126 3127 3128 3129 3130 3132 3134 3133 3134 3136 3136 3135 3136 3136 3137 3136 3136 3135 3135 3135 3134 3134 3133 3131 3124 3123 3121 3120 3118 3114 3115 3113 3109 3103 3099 3079 3086 3079 3080 3076 3073 3068 3064 3058 3054
3119 3122 3123 3124 3125 3127 3127 3129 3130 3132 3132 3131 3131 3132 3132 3131 3131 3130 3129 3128 3126 3126 3126 3123 3117 3114 3106 3110 3107 3101 3100 3097 3093 3089 3082 3076 3075 3077 3073 3068 3063 3061 3056 3052 3048
3111 3114 3116 3116 3118 3121 3122 3124 3124 3126 3126 3125 3126 3126 3125 3126 3124 3123 3122 3121 3120 3119 3119 3116 3112 3107 3093 3098 3096 3087 3084 3083 3079 3079 3077 3072 3070 3069 3063 3059 3057 3053 3049 3045 3041